Location: ?????
(33.0995°N, 35.2889°E)
Time: 16:50:12
(UTC+00:00)

Daily predictions for brighter satellites

Satellite Brightness Start Highest point End
(mag) Time Altitude Azimuth Time Altitude Azimuth Time Altitude Azimuth
COBE Rocket 4.0 15:24:05 10° NNE 15:29:16 72° E 15:34:17 10° S
Cosmos 1606 Rocket 3.6 15:25:14 10° S 15:29:34 60° E 15:33:53 10° NNE
CSL-04 Rocket 4.5 15:26:19 10° SE 15:31:04 30° ENE 15:35:49 10° N
SWAS 4.4 15:30:58 10° SSW 15:35:10 66° ESE 15:39:25 10° NNE
Cosmos 2285 Rocket 4.4 15:29:11 10° N 15:35:19 44° ENE 15:41:22 10° SE
SMAP 4.0 15:31:42 10° S 15:36:14 54° W 15:40:48 10° NNW
Envisat 3.0 15:33:29 10° SSE 15:38:27 59° ENE 15:43:27 10° N
NOAA 12 4.1 15:35:44 10° SSE 15:40:59 85° ENE 15:46:17 10° NNW
Cosmos 1758 Rocket 3.5 15:39:50 10° N 15:44:17 73° E 15:48:45 10° SSE
SL-4 R/B 3.6 15:46:09 10° NNW 15:48:41 17° NNE 15:50:29 13° ENE
Cosmos 1271 Rocket 2.8 15:49:35 10° N 15:53:30 56° E 15:57:25 10° SSE
Atlas Centaur 2 3.7 15:49:45 10° W 15:55:28 32° SSW 16:00:06 10° SE
YAOGAN 1 2.8 15:53:14 10° SSE 15:57:22 47° ENE 16:01:32 10° N
SKYMED 2 4.1 15:54:08 10° N 15:58:26 62° WNW 16:02:41 10° SSW
Cosmos 1953 3.7 15:55:39 10° SSW 15:59:30 43° W 16:03:24 10° N
Cosmos 1356 3.4 15:56:53 10° S 16:00:13 54° E 16:03:35 10° NNE
Cosmos 1626 4.0 15:58:39 10° NNW 16:02:03 34° W 16:05:26 10° SSW
Cosmos 1726 2.0 15:59:00 10° S 16:02:37 64° E 16:06:14 10° NNE
CZ-4C R/B 3.0 15:55:37 10° NNW 16:03:16 79° ENE 16:11:41 10° SSE
BREEZE-M DEB (TANK) 3.9 15:58:51 10° WSW 16:05:45 48° NW 16:08:19 12° NNE
BREEZE M DEB (TANK) 4.5 16:04:48 10° N 16:06:52 15° NE 16:07:40 14° NE
COSMOS 2406 4.1 16:03:02 10° N 16:07:55 28° ENE 16:10:38 20° ESE
Cosmos 1703 3.9 16:05:16 10° NNE 16:08:50 32° E 16:12:22 10° SE
FengYun 1-2 T 4.3 16:04:41 10° SSE 16:10:20 87° WSW 16:16:00 10° NNW
Meteosat 1 Rocket2 4.4 16:08:02 10° SSW 16:10:44 20° SSE 16:12:00 17° SE
CSL-04 Debris 4.1 16:05:38 10° SSE 16:11:01 73° ENE 16:16:28 10° N
Cosmos 1726 Rocket 4.5 16:07:35 10° SSW 16:11:52 51° W 16:16:10 10° N
USA 238 DEB 4.1 16:06:56 10° S 16:12:53 36° ESE 16:18:04 14° NE
USA 238 4.1 16:07:03 10° S 16:13:00 36° ESE 16:18:05 14° NE
Cosmos 1354 Rocket 3.9 16:07:50 10° NNW 16:13:05 81° ENE 16:18:18 10° SSE
ASTEX 1 4.0 16:12:11 10° N 16:17:03 61° W 16:21:56 10° SSW
ASTRO E2 4.3 16:16:41 10° W 16:20:06 27° SSW 16:22:34 15° SSE
Ariane Rocket 3.4 16:16:23 10° SE 16:21:05 40° ENE 16:25:50 10° N
Cosmos 2058 Rocket 3.5 16:17:16 10° SSW 16:21:35 64° W 16:25:55 10° N
OAO 2 Rocket 3.5 16:17:52 10° W 16:23:09 71° N 16:25:47 30° ENE
Cosmos 968 Rocket 3.8 16:18:38 10° NNW 16:23:53 69° WSW 16:29:04 10° S
Cosmos 1939 Rocket 3.0 16:21:49 22° SE 16:24:01 45° ENE 16:27:50 10° N
Cosmos 1727 Rocket 4.1 16:21:03 10° SSE 16:26:56 48° E 16:32:49 10° NNE
OAO 3 Rocket 3.3 16:22:33 10° W 16:27:30 75° N 16:29:38 34° ENE
Cosmos 1242 Rocket 2.4 16:24:03 10° N 16:27:44 77° E 16:31:24 10° SSE
Cosmos 1605 Rocket 4.0 16:21:54 10° N 16:27:57 55° E 16:33:55 10° SSE
Shenzhou-11 Module 4.4 16:28:30 10° NW 16:29:47 12° N 16:30:03 12° N
USA 234 3.6 16:26:22 24° ENE 16:29:52 42° SE 16:35:59 10° SSW
Abrixas rocket 2.4 16:27:27 10° WSW 16:30:28 58° NW 16:31:02 47° N
Meteor 2-10 4.3 16:25:23 10° SSW 16:30:30 66° W 16:35:33 10° N
Cosmos 839 Rocket 4.4 16:30:20 10° NNW 16:36:28 48° ENE 16:39:37 30° ESE
Lacrosse 5 rocket 1.5 16:33:42 10° NNW 16:37:20 47° NE 16:37:20 47° NE
NOSS 3-2 (A) 3.5 16:34:53 10° S 16:40:08 44° ESE 16:41:20 39° E
Cosmos 1908 3.9 16:37:45 10° SSW 16:41:35 57° W 16:45:26 10° N
Cosmos 1934 Rocket 4.3 16:36:27 10° NNW 16:42:45 69° W 16:49:02 10° S
CZ-4 R/B 3.3 16:39:10 10° SSW 16:42:49 31° W 16:46:33 10° NW
Cosmos 2278 Rocket 2.1 16:38:19 10° SSW 16:43:58 88° WNW 16:49:41 10° NNE
H-2A R/B 4.2 16:47:53 13° NNE 16:47:53 13° NNE 16:48:37 10° NNE
Cosmos 1777 Rocket 4.3 16:42:48 10° N 16:47:29 45° ENE 16:47:29 45° ENE
SL-24 R/B 4.5 16:50:57 10° NNE 16:56:52 75° E 17:01:45 10° S
Cosmos 1153 Rocket 4.4 17:13:29 10° N 17:19:38 84° W 17:21:21 50° S
SL-4 R/B 4.4 17:25:01 10° NW 17:26:07 18° WNW 17:26:07 18° WNW
Cosmos 1833 Rocket 4.0 17:31:00 10° NNW 17:33:53 31° N 17:33:53 31° N
ADEOS Rocket 3.5 17:37:40 10° N 17:45:21 76° WNW 17:52:26 10° SSW
Cosmos 2082 Rocket 4.2 17:48:32 10° NNW 17:50:12 20° NNW 17:50:12 20° NNW
USA 234 4.2 18:13:46 43° WNW 18:13:46 43° WNW 18:18:58 10° WSW
H-2A R/B 3.9 17:31:13 10° WSW 18:18:07 79° S 18:18:07 79° S
